Terug naar catalogus

STARLINK-35103

ActiefCommunicatieVLEO
NORAD 65633·PAYLOAD·🇺🇸 United States

Gelanceerd Sep 18, 2025 vanaf Cape Canaveral Space Force Station

Loading…

Volgende Passages (komende 24 uur)

TLE

VersSource: CelesTrak SupGP

Epoch: Sep 14, 2026, 21:15 UTC

1 65633C 25210M   26257.88590278 -.00059725  00000+0 -17646-2 0  2574
2 65633  53.1565 143.9029 0001284  89.0637 128.9161 15.34420691    10

Volg STARLINK-35103 in realtime met AllMySat

Download on the App Store